DW8923 Weather Reports


time (UTC)temp
C
wind
direction
speed
KPH
gust
KPH
rain 1hr
cm
rain 24hr
cm
rain mn
cm
humidity
%
barometer
mb
20260903021549 31 107 0.0 3.2 0.00 0.00 0.00 60 1009.6
20260903020148 31 38 0.0 3.2 0.00 0.00 0.00 54 1009.4
20260903014547 32 59 0.0 3.2 0.00 0.00 0.00 53 1009.2
20260903013050 32 60 0.0 3.2 0.00 0.00 0.00 52 1009.1
20260903011546 32 62 1.6 3.2 0.00 0.00 0.00 51 1009.2
20260903010045 33 22 0.0 1.6 0.00 0.00 0.00 50 1009.0
20260903004543 33 156 0.0 1.6 0.00 0.00 0.00 49 1009.1
20260903003043 34 156 0.0 1.6 0.00 0.00 0.00 48 1009.1
20260903001542 34 156 0.0 3.2 0.00 0.00 0.00 48 1009.0
20260903000043 35 156 0.0 3.2 0.00 0.00 0.00 45 1009.0
20260902234541 35 155 3.2 6.4 0.00 0.00 0.00 44 1009.0
20260902233041 35 107 0.0 4.8 0.00 0.00 0.00 43 1009.0
20260902231542 35 166 3.2 11.3 0.00 0.00 0.00 42 1009.1
20260902230042 37 225 3.2 14.5 0.00 0.00 0.00 41 1009.0
20260902224538 37 30 3.2 8.0 0.00 0.00 0.00 38 1008.8
20260902223037 37 30 1.6 11.3 0.00 0.00 0.00 39 1008.8
20260902221536 36 59 3.2 8.0 0.00 0.00 0.00 40 1008.9
20260902220033 36 298 0.0 14.5 0.00 0.00 0.00 40 1009.1
20260902214531 37 20 3.2 8.0 0.00 0.00 0.00 40 1009.2
20260902213032 37 275 1.6 11.3 0.00 0.00 0.00 38 1009.3
20260902211529 38 342 3.2 8.0 0.00 0.00 0.00 36 1009.2
20260902210026 37 190 0.0 8.0 0.00 0.00 0.00 39 1009.3
20260902204523 36 271 3.2 8.0 0.00 0.00 0.00 39 1009.6
20260902203020 36 217 1.6 8.0 0.00 0.00 0.00 40 1009.9
20260902201522 36 325 1.6 4.8 0.00 0.00 0.00 42 1010.1
20260902200015 36 271 0.0 6.4 0.00 0.00 0.00 42 1010.3
20260902194520 36 296 1.6 9.7 0.00 0.00 0.00 43 1010.6
20260902193011 36 257 1.6 11.3 0.00 0.00 0.00 43 1010.8
20260902191513 37 247 1.6 12.9 0.00 0.00 0.00 40 1010.9
20260902190007 38 109 1.6 9.7 0.00 0.00 0.00 39 1011.1
20260902184503 37 197 1.6 12.9 0.00 0.00 0.00 40 1011.4
20260902183001 37 219 3.2 8.0 0.00 0.00 0.00 41 1011.7
20260902181559 37 79 1.6 9.7 0.00 0.00 0.00 42 1011.9
20260902180055 36 263 1.6 8.0 0.00 0.00 0.00 43 1012.4
20260902174550 36 227 0.0 6.4 0.00 0.00 0.00 42 1012.6
20260902173049 36 300 3.2 11.3 0.00 0.00 0.00 45 1012.9
20260902171559 35 304 0.0 8.0 0.00 0.00 0.00 47 1013.0
20260902170040 35 273 3.2 9.7 0.00 0.00 0.00 46 1013.2
20260902164538 35 311 4.8 12.9 0.00 0.00 0.00 45 1013.4
20260902163036 35 273 1.6 12.9 0.00 0.00 0.00 48 1013.5
20260902161532 33 137 1.6 8.0 0.00 0.00 0.00 53 1013.6
20260902160028 33 159 1.6 3.2 0.00 0.00 0.00 54 1013.7
20260902154526 32 302 3.2 8.0 0.00 0.00 0.00 56 1013.6
20260902153019 31 225 1.6 6.4 0.00 0.00 0.00 59 1013.8
20260902151515 30 26 0.0 4.8 0.00 0.00 0.00 62 1013.7
20260902150015 29 360 0.0 4.8 0.00 0.00 0.00 66 1013.7
20260902144507 28 5 1.6 4.8 0.00 0.00 0.00 69 1013.8
20260902143006 27 242 1.6 6.4 0.00 0.00 0.00 75 1013.8
20260902141503 27 207 1.6 4.8 0.00 0.00 0.00 75 1013.7
20260902140004 26 271 0.0 3.2 0.00 0.00 0.00 81 1013.6
20260902134501 26 218 0.0 3.2 0.00 0.00 0.00 82 1013.6
20260902133108 25 230 0.0 1.6 0.00 0.00 0.00 84 1013.5
20260902131558 23 229 0.0 0.0 0.00 0.00 0.00 86 1013.3
20260902130058 23 229 0.0 3.2 0.00 0.00 0.00 87 1013.1
20260902124557 23 36 0.0 0.0 0.00 0.00 0.00 86 1013.0
20260902123108 23 36 0.0 0.0 0.00 0.00 0.00 85 1013.0
20260902121555 23 36 0.0 0.0 0.00 0.00 0.00 86 1013.0
20260902120054 23 36 0.0 3.2 0.00 0.00 0.00 86 1012.9
20260902114555 23 17 3.2 6.4 0.00 0.00 0.00 86 1012.9
20260902113054 23 178 0.0 0.0 0.00 0.00 0.00 84 1012.7
20260902111552 23 178 0.0 0.0 0.00 0.00 0.00 84 1012.6
20260902104554 23 120 0.0 3.2 0.00 0.00 0.00 84 1012.5
20260902103048 23 120 0.0 1.6 0.00 0.00 0.00 83 1012.5
20260902101547 23 120 0.0 0.0 0.00 0.00 0.00 82 1012.6
20260902100045 24 120 0.0 0.0 0.00 0.00 0.00 81 1012.7
20260902094545 24 120 0.0 0.0 0.00 0.00 0.00 81 1012.7
20260902093043 25 120 0.0 0.0 0.00 0.00 0.00 81 1012.8
20260902091539 25 120 0.0 0.0 0.00 0.00 0.00 81 1012.8
20260902090038 25 120 0.0 0.0 0.00 0.00 0.00 80 1012.9
20260902084542 25 120 0.0 0.0 0.00 0.00 0.00 80 1012.8
20260902083035 25 120 0.0 4.8 0.00 0.00 0.00 79 1012.8
20260902081536 25 93 0.0 3.2 0.00 0.00 0.00 79 1012.9
20260902080035 25 93 0.0 1.6 0.00 0.00 0.00 78 1012.9
20260902074630 25 93 0.0 0.0 0.00 0.00 0.00 76 1013.0
20260902073033 26 93 0.0 0.0 0.00 0.00 0.00 75 1013.0
20260902071534 26 93 0.0 1.6 0.00 0.00 0.00 75 1013.0
20260902070027 26 93 0.0 3.2 0.00 0.00 0.00 74 1013.2
20260902064526 26 86 0.0 4.8 0.00 0.00 0.00 73 1013.2
20260902063030 26 83 0.0 6.4 0.00 0.00 0.00 71 1013.2
20260902061539 27 90 1.6 4.8 0.00 0.00 0.00 70 1013.3
20260902060025 27 56 0.0 3.2 0.00 0.00 0.00 69 1013.3
20260902054520 27 99 0.0 0.0 0.00 0.00 0.00 68 1013.1
20260902053021 27 99 0.0 1.6 0.00 0.00 0.00 66 1013.0
20260902051512 27 99 0.0 3.2 0.00 0.00 0.00 66 1012.9
20260902050014 28 124 0.0 4.8 0.00 0.00 0.00 66 1013.0
20260902044510 28 60 0.0 4.8 0.00 0.00 0.00 66 1013.1
20260902043014 28 93 0.0 3.2 0.00 0.00 0.00 66 1013.0
20260902041509 28 117 0.0 0.0 0.00 0.00 0.00 64 1012.8
20260902040009 29 117 0.0 1.6 0.00 0.00 0.00 62 1012.8
20260902034508 29 117 0.0 0.0 0.00 0.00 0.00 61 1012.7
20260902033011 29 117 0.0 1.6 0.00 0.00 0.00 61 1012.5
20260902031507 30 117 1.6 4.8 0.00 0.00 0.00 59 1012.4
20260902030006 30 117 0.0 1.6 0.00 0.00 0.00 58 1012.2
20260902024505 30 117 0.0 3.2 0.00 0.00 0.00 57 1011.7
20260902023004 30 96 0.0 4.8 0.00 0.00 0.00 56 1011.4